TimePDT,TemperatureF,Dew PointF,Humidity,Sea Level PressureIn,VisibilityMPH,Wind Direction,Wind SpeedMPH,Gust SpeedMPH,PrecipitationIn,Events,Conditions,WindDirDegrees,DateUTC
12:54 AM,64.9,60.1,84,29.86,10.0,Calm,Calm,-,0.00,,Overcast,0,2013-08-28 07:54:00
1:54 AM,63.0,60.1,90,29.86,10.0,Calm,Calm,-,0.00,Rain,Light Rain,0,2013-08-28 08:54:00
2:54 AM,63.0,60.1,90,29.86,10.0,SW,3.5,-,0.00,,Overcast,220,2013-08-28 09:54:00
3:54 AM,62.1,59.0,90,29.85,10.0,Calm,Calm,-,N/A,,Scattered Clouds,0,2013-08-28 10:54:00
4:54 AM,61.0,57.9,90,29.85,10.0,Calm,Calm,-,N/A,,Clear,0,2013-08-28 11:54:00
5:54 AM,60.1,57.0,90,29.86,10.0,Calm,Calm,-,N/A,,Mostly Cloudy,0,2013-08-28 12:54:00
6:54 AM,60.1,57.9,93,29.87,10.0,SW,3.5,-,N/A,,Mostly Cloudy,220,2013-08-28 13:54:00
7:40 AM,62.6,59.0,88,29.88,10.0,Calm,Calm,-,N/A,,Mostly Cloudy,0,2013-08-28 14:40:00
7:54 AM,63.0,59.0,87,29.88,10.0,Calm,Calm,-,N/A,,Mostly Cloudy,0,2013-08-28 14:54:00
8:54 AM,66.9,60.1,79,29.88,10.0,Calm,Calm,-,N/A,,Scattered Clouds,0,2013-08-28 15:54:00
9:54 AM,70.0,59.0,68,29.88,10.0,West,3.5,-,N/A,,Scattered Clouds,270,2013-08-28 16:54:00
10:54 AM,73.9,57.9,57,29.88,10.0,NNE,3.5,-,N/A,,Scattered Clouds,20,2013-08-28 17:54:00
11:54 AM,75.9,57.0,52,29.87,10.0,Calm,Calm,-,N/A,,Mostly Cloudy,0,2013-08-28 18:54:00
12:54 PM,79.0,55.9,45,29.87,10.0,West,8.1,-,N/A,,Mostly Cloudy,270,2013-08-28 19:54:00
1:54 PM,80.1,55.9,43,29.86,10.0,West,3.5,-,N/A,,Mostly Cloudy,280,2013-08-28 20:54:00
2:54 PM,82.9,55.9,39,29.85,10.0,WNW,8.1,-,N/A,,Mostly Cloudy,300,2013-08-28 21:54:00
3:54 PM,82.9,55.9,39,29.84,10.0,Variable,3.5,-,N/A,,Mostly Cloudy,0,2013-08-28 22:54:00
4:54 PM,82.0,57.0,42,29.85,10.0,West,13.8,-,N/A,,Mostly Cloudy,280,2013-08-28 23:54:00
5:54 PM,77.0,59.0,54,29.87,10.0,WNW,13.8,-,N/A,,Mostly Cloudy,290,2013-08-29 00:54:00
6:54 PM,73.0,57.9,59,29.88,10.0,West,8.1,-,N/A,,Mostly Cloudy,280,2013-08-29 01:54:00
7:54 PM,72.0,57.0,59,29.89,10.0,West,4.6,-,N/A,,Overcast,260,2013-08-29 02:54:00
8:54 PM,70.0,57.9,65,29.91,10.0,WSW,4.6,-,N/A,,Mostly Cloudy,250,2013-08-29 03:54:00
9:54 PM,68.0,57.9,70,29.91,10.0,SW,6.9,-,N/A,,Overcast,230,2013-08-29 04:54:00
10:54 PM,68.0,59.0,73,29.91,10.0,SW,4.6,-,N/A,,Overcast,230,2013-08-29 05:54:00
11:54 PM,66.0,61.0,84,29.91,10.0,SSW,4.6,-,0.00,Rain,Light Rain,210,2013-08-29 06:54:00